TimePST,TemperatureF,Dew PointF,Humidity,Sea Level PressureIn,VisibilityMPH,Wind Direction,Wind SpeedMPH,Gust SpeedMPH,PrecipitationIn,Events,Conditions,WindDirDegrees,DateUTC
12:15 AM,32.0,32.0,100,30.10,9.0,South,4.6,-,N/A,,Clear,170,2013-02-10 08:15:00
12:35 AM,33.8,33.8,100,30.09,9.0,SE,3.5,-,N/A,,Clear,140,2013-02-10 08:35:00
12:55 AM,32.0,32.0,100,30.10,10.0,Calm,Calm,-,N/A,,Clear,0,2013-02-10 08:55:00
1:15 AM,32.0,32.0,100,30.11,8.0,Calm,Calm,-,N/A,,Clear,0,2013-02-10 09:15:00
1:35 AM,33.8,33.8,100,30.10,8.0,Calm,Calm,-,N/A,,Clear,0,2013-02-10 09:35:00
1:55 AM,32.0,32.0,100,30.10,6.0,Calm,Calm,-,N/A,,Clear,0,2013-02-10 09:55:00
2:15 AM,32.0,32.0,100,30.10,7.0,Calm,Calm,-,N/A,,Clear,0,2013-02-10 10:15:00
2:35 AM,32.0,32.0,100,30.10,7.0,Calm,Calm,-,N/A,,Clear,0,2013-02-10 10:35:00
2:55 AM,32.0,32.0,100,30.10,7.0,Calm,Calm,-,N/A,,Clear,0,2013-02-10 10:55:00
3:15 AM,32.0,32.0,100,30.10,2.5,SSE,3.5,-,N/A,,Clear,160,2013-02-10 11:15:00
3:35 AM,32.0,32.0,100,30.09,6.0,SSE,3.5,-,N/A,,Clear,160,2013-02-10 11:35:00
3:55 AM,32.0,32.0,100,30.09,5.0,SE,3.5,-,N/A,,Clear,140,2013-02-10 11:55:00
4:15 AM,32.0,32.0,100,30.10,5.0,Calm,Calm,-,N/A,,Clear,0,2013-02-10 12:15:00
4:35 AM,32.0,32.0,100,30.10,6.0,Calm,Calm,-,N/A,,Clear,0,2013-02-10 12:35:00
5:15 AM,33.8,33.8,100,30.11,6.0,Calm,Calm,-,N/A,,Clear,0,2013-02-10 13:15:00
5:35 AM,32.0,32.0,100,30.10,8.0,SSE,3.5,-,N/A,,Clear,150,2013-02-10 13:35:00
5:55 AM,32.0,32.0,100,30.10,8.0,SSE,3.5,-,N/A,,Clear,160,2013-02-10 13:55:00
6:45 AM,32.0,32.0,100,30.10,5.0,Variable,3.5,-,N/A,,Haze,0,2013-02-10 14:45:00
7:45 AM,33.8,33.8,100,30.12,7.0,Calm,Calm,-,N/A,,Clear,0,2013-02-10 15:45:00
8:45 AM,39.2,39.2,100,30.12,7.0,Calm,Calm,-,N/A,,Clear,0,2013-02-10 16:45:00
9:45 AM,46.4,44.6,93,30.12,10.0,Calm,Calm,-,N/A,,Clear,0,2013-02-10 17:45:00
10:45 AM,51.8,42.8,71,30.11,10.0,Calm,Calm,-,N/A,,Clear,0,2013-02-10 18:45:00
11:45 AM,55.4,39.2,54,30.08,10.0,Calm,Calm,-,N/A,,Clear,0,2013-02-10 19:45:00
12:45 PM,57.2,33.8,41,30.06,10.0,Calm,Calm,-,N/A,,Clear,0,2013-02-10 20:45:00
1:45 PM,57.2,35.6,44,30.05,10.0,Variable,4.6,-,N/A,,Clear,0,2013-02-10 21:45:00
2:45 PM,57.2,35.6,44,30.03,10.0,Variable,4.6,-,N/A,,Clear,0,2013-02-10 22:45:00
3:45 PM,57.2,35.6,44,30.03,10.0,Calm,Calm,-,N/A,,Clear,0,2013-02-10 23:45:00
4:45 PM,55.4,37.4,51,30.04,10.0,Calm,Calm,-,N/A,,Clear,0,2013-02-11 00:45:00
5:45 PM,50.0,37.4,62,30.03,10.0,Calm,Calm,-,N/A,,Clear,0,2013-02-11 01:45:00
6:45 PM,46.4,37.4,71,30.04,10.0,Calm,Calm,-,N/A,,Clear,0,2013-02-11 02:45:00
7:45 PM,44.6,37.4,76,30.04,10.0,Calm,Calm,-,N/A,,Clear,0,2013-02-11 03:45:00
8:15 PM,42.8,37.4,81,30.05,10.0,Calm,Calm,-,N/A,,Clear,0,2013-02-11 04:15:00
8:35 PM,39.2,37.4,93,30.05,10.0,Calm,Calm,-,N/A,,Clear,0,2013-02-11 04:35:00
8:45 PM,41.0,37.4,87,30.05,10.0,Calm,Calm,-,N/A,,Clear,0,2013-02-11 04:45:00
8:55 PM,39.2,39.2,100,30.05,10.0,Calm,Calm,-,N/A,,Clear,0,2013-02-11 04:55:00
9:15 PM,39.2,39.2,100,30.06,10.0,Calm,Calm,-,N/A,,Clear,0,2013-02-11 05:15:00
9:35 PM,39.2,39.2,100,30.05,10.0,Calm,Calm,-,N/A,,Clear,0,2013-02-11 05:35:00
9:55 PM,37.4,37.4,100,30.05,10.0,East,3.5,-,N/A,,Clear,100,2013-02-11 05:55:00
10:15 PM,37.4,37.4,100,30.06,10.0,SSW,3.5,-,N/A,,Clear,200,2013-02-11 06:15:00
10:35 PM,39.2,39.2,100,30.06,10.0,South,3.5,-,N/A,,Clear,190,2013-02-11 06:35:00
10:55 PM,37.4,37.4,100,30.06,10.0,SE,4.6,-,N/A,,Clear,140,2013-02-11 06:55:00
11:15 PM,37.4,37.4,100,30.06,10.0,SE,5.8,-,N/A,,Clear,140,2013-02-11 07:15:00
11:35 PM,37.4,37.4,100,30.07,10.0,SE,5.8,-,N/A,,Clear,140,2013-02-11 07:35:00
11:55 PM,37.4,37.4,100,30.07,10.0,SE,4.6,-,N/A,,Clear,140,2013-02-11 07:55:00